Back to catalog

STARLINK-34065

AliveCommunicationsVLEO
NORAD 63813·PAYLOAD·🇺🇸 United States

Launched May 4, 2025 from Cape Canaveral Space Force Station

Loading…

Next Passes (next 24 hours)

TLE

FreshSource: CelesTrak SupGP

Epoch: Sep 14, 2026, 21:40 UTC

1 63813C 25092K   26257.90326389 -.00018272  00000+0 -66172-3 0  2574
2 63813  43.0000 180.1238 0001372 261.2676 193.2901 15.27591488    12

Track STARLINK-34065 in real time with AllMySat

Download on the App Store